TimePDT,TemperatureF,Dew PointF,Humidity,Sea Level PressureIn,VisibilityMPH,Wind Direction,Wind SpeedMPH,Gust SpeedMPH,PrecipitationIn,Events,Conditions,WindDirDegrees,DateUTC
12:53 AM,52.0,44.1,74,30.31,10.0,Calm,Calm,-,N/A,,Clear,0,2012-10-03 07:53:00
1:53 AM,52.0,43.0,71,30.31,10.0,North,6.9,-,N/A,,Clear,350,2012-10-03 08:53:00
2:53 AM,51.8,44.6,76,30.31,10.0,NNW,8.1,-,N/A,,Clear,340,2012-10-03 09:53:00
3:53 AM,50.0,43.0,77,30.34,10.0,North,6.9,-,N/A,,Clear,350,2012-10-03 10:53:00
4:53 AM,48.9,41.0,74,30.35,10.0,North,5.8,-,N/A,,Clear,360,2012-10-03 11:53:00
5:53 AM,48.9,39.9,71,30.36,10.0,NNW,4.6,-,N/A,,Clear,340,2012-10-03 12:53:00
6:53 AM,48.0,43.0,83,30.37,10.0,NNW,8.1,-,N/A,,Clear,330,2012-10-03 13:53:00
7:53 AM,48.9,39.9,71,30.38,10.0,NNW,8.1,-,N/A,,Clear,340,2012-10-03 14:53:00
8:53 AM,51.1,37.9,61,30.39,10.0,NNW,9.2,16.1,N/A,,Clear,340,2012-10-03 15:53:00
9:53 AM,54.0,35.1,49,30.39,10.0,NNW,12.7,23.0,N/A,,Clear,330,2012-10-03 16:53:00
10:53 AM,55.9,37.0,49,30.39,10.0,North,10.4,-,N/A,,Clear,350,2012-10-03 17:53:00
11:53 AM,60.1,39.0,46,30.38,10.0,NNW,10.4,19.6,N/A,,Clear,340,2012-10-03 18:53:00
12:53 PM,64.0,37.9,38,30.36,10.0,NNW,10.4,18.4,N/A,,Clear,340,2012-10-03 19:53:00
1:53 PM,64.9,34.0,32,30.34,10.0,NNW,13.8,24.2,N/A,,Clear,330,2012-10-03 20:53:00
2:53 PM,66.9,37.0,33,30.32,10.0,NNW,13.8,19.6,N/A,,Clear,330,2012-10-03 21:53:00
3:53 PM,66.0,36.0,33,30.30,10.0,NNW,13.8,19.6,N/A,,Clear,330,2012-10-03 22:53:00
4:53 PM,66.0,35.1,32,30.30,10.0,NW,13.8,-,N/A,,Clear,320,2012-10-03 23:53:00
5:53 PM,64.0,37.9,38,30.29,10.0,NNW,12.7,-,N/A,,Clear,330,2012-10-04 00:53:00
6:53 PM,61.0,37.9,42,30.29,10.0,NW,11.5,-,N/A,,Clear,320,2012-10-04 01:53:00
7:53 PM,59.0,39.9,49,30.29,10.0,NNW,6.9,-,N/A,,Clear,330,2012-10-04 02:53:00
8:53 PM,57.9,41.0,53,30.29,10.0,NNW,4.6,-,N/A,,Clear,340,2012-10-04 03:53:00
9:53 PM,57.0,37.0,47,30.29,10.0,NW,10.4,-,N/A,,Clear,320,2012-10-04 04:53:00
10:53 PM,55.9,39.0,53,30.30,10.0,NW,10.4,-,N/A,,Clear,320,2012-10-04 05:53:00
11:53 PM,54.0,37.0,53,30.29,10.0,NNW,12.7,-,N/A,,Clear,330,2012-10-04 06:53:00